Location: Newark
(37.8333°N, 119.5000°W)
Time: 09:34:57
(UTC+00:00)

Transit 2A - All Passes

Search period start: 21 August 2019 00:00
Search period end: 31 August 2019 00:00
Orbit: 597 x 962 km, 66.7° (Epoch: 20 August)

Date Brightness Start Highest point End Pass type
(mag) Time Alt. Az. Time Alt. Az. Time Alt. Az.
21 Aug - 02:25:10 10° NNW 02:29:42 41° NE 02:33:53 10° SE daylight
21 Aug - 04:09:26 10° WNW 04:12:23 17° WSW 04:15:13 10° SW visible
21 Aug - 17:01:14 10° SSW 17:07:22 60° ESE 17:13:06 10° NE daylight
21 Aug - 18:46:07 10° WSW 18:50:55 23° NW 18:55:26 10° N daylight
22 Aug - 01:51:20 10° N 01:55:27 28° NE 01:59:17 10° ESE daylight
22 Aug - 03:34:36 10° NW 03:38:29 27° WSW 03:42:10 10° SSW visible
22 Aug - 16:27:31 10° S 16:33:19 42° ESE 16:38:47 10° NE daylight
22 Aug - 18:11:11 10° WSW 18:16:37 32° NW 18:21:43 10° N daylight
23 Aug - 01:17:41 10° N 01:21:07 19° NE 01:24:22 10° E daylight
23 Aug - 03:00:07 10° NW 03:04:32 43° WSW 03:08:40 10° S visible
23 Aug - 15:54:06 10° SSE 15:59:20 29° ESE 16:04:18 10° NE daylight
23 Aug - 17:36:31 10° SW 17:42:22 44° WNW 17:47:51 10° NNE daylight
24 Aug - 00:44:21 10° NNE 00:46:43 13° NE 00:49:00 10° ENE daylight
24 Aug - 02:25:50 10° NNW 02:30:31 71° WSW 02:34:51 10° SSE daylight
24 Aug - 15:21:05 10° SSE 15:25:22 20° ESE 15:29:30 10° ENE daylight
24 Aug - 17:02:03 10° SW 17:08:11 63° WNW 17:13:54 10° NNE daylight
24 Aug - 18:50:30 10° WNW 18:52:24 11° NW 18:54:15 10° NNW daylight
25 Aug - 01:51:43 10° NNW 01:56:25 72° ENE 02:00:47 10° SE daylight
25 Aug - 14:48:51 10° SE 14:51:28 13° ESE 14:54:02 10° ENE daylight
25 Aug - 16:27:49 10° SSW 16:34:04 88° WNW 16:39:51 10° NNE daylight
25 Aug - 18:14:24 10° W 18:17:57 16° NW 18:21:21 10° N daylight
26 Aug - 01:17:44 10° NNW 01:22:16 45° ENE 01:26:28 10° SE daylight
26 Aug - 03:02:17 10° WNW 03:04:52 15° WSW 03:07:23 10° SW visible
26 Aug - 15:53:50 10° SSW 15:59:58 65° ESE 16:05:42 10° NE daylight
26 Aug - 17:39:01 10° W 17:43:34 22° NW 17:47:52 10° N daylight
27 Aug - 00:43:52 10° N 00:48:02 30° NE 00:51:55 10° ESE daylight
27 Aug - 02:27:18 10° NW 02:30:59 24° WSW 02:34:29 10° SSW daylight
27 Aug - 15:20:04 10° S 15:25:55 45° ESE 15:31:24 10° NE daylight
27 Aug - 17:04:00 10° WSW 17:09:16 30° NW 17:14:11 10° N daylight
28 Aug - 00:10:11 10° N 00:13:43 21° NE 00:17:04 10° E daylight
28 Aug - 01:52:46 10° NW 01:57:02 39° WSW 02:01:04 10° S daylight
28 Aug - 14:46:35 10° S 14:51:55 31° ESE 14:56:57 10° NE daylight
28 Aug - 16:29:16 10° SW 16:35:01 41° WNW 16:40:22 10° NNE daylight
28 Aug - 23:36:46 10° NNE 23:39:20 14° NE 23:41:48 10° ENE daylight
29 Aug - 01:18:27 10° NW 01:23:02 64° WSW 01:27:19 10° SSE daylight
29 Aug - 14:13:28 10° SSE 14:17:57 21° ESE 14:22:14 10° ENE daylight
29 Aug - 15:54:46 10° SW 16:00:50 58° WNW 16:06:26 10° NNE daylight
29 Aug - 17:44:05 10° NW 17:45:04 10° NW 17:46:05 10° NNW daylight
30 Aug - 00:44:18 10° NNW 00:48:58 80° ENE 00:53:18 10° SSE daylight
30 Aug - 13:41:00 10° SE 13:44:02 14° ESE 13:46:58 10° ENE daylight
30 Aug - 15:20:30 10° SSW 15:26:41 82° WNW 15:32:24 10° NNE daylight
30 Aug - 17:07:27 10° WNW 17:10:37 15° NW 17:13:40 10° NNW daylight
